吉林一号06星 (JILIN-1 06)

导读

JILIN-01-06(吉林一号06星)是中国于2017年11月21日发射的商用高分辨率光学遥感卫星,属于“吉林一号”卫星星座组网卫星。卫星采用“星载一体化”技术设计,具备重量轻、体积小、智能化程度高、成本低等优势,可获取高清晰地表影像,服务于国土资源调查、农林监测、城市规划、防灾减灾等领域,为商业遥感应用提供有力支撑。

Basic Information
目录编号:
43024
目录名称:
JILIN-01-06
国际标识:
2017-074C
轨道中心:
EARTH
卫星名称:
吉林一号06星
卫星全名:
吉林一号06星 (JILIN-1 06)
卫星状态:
在轨 (已飞行3126 天)
发射日期:
2017-11-21 UTC
国别 :
中国 (CN)
星等 :
--
Orbit Information
数据来源 国际轨道数据 AOE轨道数据
星历时间 2026-06-13T04:26:38+0800
6小时前
查看轨道信息
2026-06-10T03:00:00+0800
3天前
查看轨道信息
半长轴 6843.08km 6843.133km
偏心率 0.0005422 0.0005259
轨道倾角 97.479° 97.476°
近地点辐角 249.365° 260.805°
升交点赤经 266.963° 263.866°
平近点角 110.701° 134.857°
近地点 461.232km 461.397km
远地点 468.654km 468.595km
周期 93.894分钟 93.895分钟
每日圈数 15.336469 15.336292
Detailed Information
平衡模式:
三轴稳定
覆盖范围:
全球
运营商:
长光卫星技术股份有限公司
运营商所在国:
中国
制造商(研发单位):
长光卫星技术股份有限公司
制造商所在国:
中国
使用方式:
暂无
Satellite Introduction
“吉林一号”卫星星座(JiLin-1)是长光卫星技术有限公司在建的核心工程,是我国目前最大的商业遥感卫星星座,具备了较强的服务能力。该卫星仍在工作。
2D Orbit Map
3D Orbit Map
Orbit Altitude Analysis Chart
Orbit Inclination Analysis Chart
Orbit Comprehensive Analysis Chart
View Comprehensive Chart